SCP
-0 -0 -0 -0 -0 -0 0 0 0 0 0 0 0 0 0 0 -0 0 -0 0 0 0 0 0 0 0 0 0 0 0 0 0 0 0 0 0 0 0 0 0 0 0 0 0 0
-0 -0 -0 -0 -0 0 0 0 0 0 0 0 0 0 0 0 0 0 0 0 0 -0 0 -0 0 0 0 0 0 0 0 0 0 0 0 0 0 0 0 0 0 0 0 0 0
-0 -0 -0 -0 0 0 0 0 0 0 0 0 0 0 0 0 0 0 0 0 0 0 0 0 0 0 0 0 0 0 0 0 0 0 0 0 0 0 0 0 0 0 0 0 0
-0 -0 -0 -0 -0 0 0 0 0 0 0 0 0 0 0 0 0 0 0 0 0 0 0 0 0 0 0 0 0 0 0 0 0 0 0 0 0 0 0 0 0 0 0 0 0
0 0 0 0 0 0 0 0 0 0 0 0 0 0 0 0 0 0 0 0 0 0 0 0 0 0 0 0 0 0 0 0 0 0 0 0 0 0 0 0 0 0 0 0 0
0 0 0 0 0 0 0 0 0 0 0 0 0 0 0 0 0 0 0 0 0 0 0 0 0 0 0 0 0 0 0 0 0 0 0 0 0 0 0 0 0 0 0 1 0
0 0 0 0 0 0 0 0 0 0 0 0 0 0 0 0 0 0 0 0 0 0 0 0 0 0 0 0 0 0 0 0 0 0 0 0 -0 0 0 0 0 0 0 0 1
0 0 0 0 0 0 0 0 0 0 0 0 0 0 0 0 0 0 0 0 0 0 0 0 0 0 0 0 0 0 0 0 0 0 0 0 0 0 0 0 0 0 0 0 0
0 0 0 0 0 0 0 0 0 0 0 0 0 0 0 0 0 0 0 0 0 0 0 0 0 0 0 0 0 0 0 0 0 0 0 0 0 0 0 0 0 0 0 0 0
0 0 0 0 0 0 0 0 0 0 0 0 0 0 0 0 0 0 0 0 0 0 0 0 0 0 0 0 0 0 0 0 0 0 0 0 0 0 0 0 0 0 0 0 0
0 0 0 0 0 0 -0 0 0 0 0 0 0 0 0 0 0 0 0 0 0 0 0 0 0 0 0 0 0 0 0 0 0 0 0 0 0 0 0 0 0 0 0 0 0
0 0 0 0 0 -0 0 0 0 0 0 0 0 0 0 0 0 0 0 0 0 0 0 0 0 0 0 0 0 0 0 0 0 0 0 0 0 0 0 0 0 0 0 0 0
0 0 0 0 -0 0 0 0 0 0 0 0 0 0 0 0 0 0 0 0 0 0 0 0 0 0 0 0 0 0 0 0 0 0 0 0 0 0 0 0 0 0 0 0 0
-0 -0 -0 -0 0 0 0 0 -0 0 0 0 0 0 0 0 0 0 0 0 0 0 0 0 0 0 0 0 0 0 0 0 0 0 0 0 0 0 0 0 0 0 0 0 0
-0 -0 0 0 0 0 0 -0 0 0 0 0 0 0 0 0 0 0 0 0 0 0 0 0 0 0 0 0 0 0 0 0 0 0 0 0 0 0 0 0 0 0 0 0 0
-0 -0 0 0 0 0 0 0 0 0 0 0 0 0 0 0 0 0 0 0 0 0 0 0 0 0 0 0 0 0 0 0 0 0 0 0 0 0 0 0 0 0 0 0 0
-0 -0 0 0 0 0 0 0 0 0 0 0 0 0 0 0 0 0 0 0 0 0 0 0 0 0 0 0 0 0 0 0 0 0 0 0 0 0 0 0 0 0 0 0 0
-0 0 0 0 0 0 0 0 0 0 0 0 0 0 0 0 0 0 0 0 0 0 0 0 0 0 0 0 0 0 0 0 0 0 0 0 0 0 0 0 0 0 0 0 0
0 0 0 0 0 0 0 0 0 0 0 0 0 0 0 0 0 0 0 0 0 0 0 0 0 0 0 0 0 0 0 0 0 0 0 0 0 0 0 0 0 0 0 0 0
0 0 0 0 0 0 0 0 0 0 0 0 0 0 0 0 0 0 0 0 0 0 0 0 0 0 0 0 0 0 0 0 0 0 0 0 0 0 0 0 0 0 0 0 0
0 0 0 0 0 0 0 0 0 0 0 0 0 0 0 0 0 0 0 0 0 0 0 0 0 0 0 0 0 0 0 0 0 0 0 0 0 0 0 0 0 0 0 0 0
0 0 0 0 0 0 0 0 0 0 0 0 0 0 0 0 0 0 0 0 0 0 0 0 0 0 0 0 0 0 0 0 0 0 0 0 0 0 0 0 0 0 0 0 0
0 0 0 0 0 0 0 0 0 0 0 0 0 0 0 0 0 0 0 0 0 0 0 0 0 0 0 0 0 0 0 0 0 0 0 0 0 0 0 0 0 0 0 0 0
0 0 0 0 0 0 0 0 0 0 0 0 0 0 0 0 0 0 0 0 0 0 0 0 0 0 0 0 0 0 0 0 0 0 0 0 0 0 0 0 0 0 0 0 0
0 0 0 0 0 0 0 0 0 0 0 0 0 0 0 0 0 0 0 0 0 0 0 0 0 0 0 0 0 0 0 0 0 0 0 0 0 0 0 0 0 0 0 0 0
0 0 0 0 0 0 0 0 0 0 0 0 0 0 0 0 0 0 0 0 0 0 0 0 0 0 0 0 0 0 0 0 0 0 0 0 0 0 0 0 0 0 0 0 0
0 0 0 0 0 0 0 0 0 0 0 0 0 0 0 0 0 0 0 0 0 0 0 0 0 0 0 0 0 0 0 0 0 0 0 0 0 0 0 0 0 0 0 0 0
Wind_Speed_500mb
42 42 41 40 38 36 35 30 26 23 19 17 17 19 20 22 26 30 30 15 18 27 28 30 34 30 26 20 14 11 8 14 14 13 6 1 7 13 19 22 26 11 14 17 18
45 44 43 41 40 37 34 31 28 24 21 19 18 20 22 26 32 35 23 15 20 37 38 34 36 31 15 15 13 12 10 15 6 9 5 13 9 18 16 28 11 16 21 17 13
46 45 44 43 40 38 36 33 29 26 23 22 21 22 24 28 30 2 10 11 22 33 36 27 27 27 11 14 15 12 12 12 10 17 12 16 14 5 16 16 10 28 26 19 19
51 51 49 47 44 40 37 35 32 28 25 24 26 25 25 20 6 11 7 8 26 33 39 34 32 18 13 16 19 10 15 15 8 15 8 13 7 13 21 31 38 41 33 26 30
54 53 53 53 49 44 40 36 36 31 26 24 25 26 23 11 17 18 13 18 28 33 37 34 28 16 16 14 17 16 9 13 21 18 22 17 23 14 22 32 33 37 25 18 24
58 55 54 55 54 48 42 39 38 33 27 24 24 23 22 12 14 16 24 19 25 32 33 29 19 21 12 13 17 14 12 9 9 14 12 14 14 9 12 21 20 24 20 18 20
62 59 56 55 56 52 44 39 37 34 27 24 24 25 28 35 15 16 21 25 26 25 22 24 16 20 17 13 8 4 9 9 14 10 10 17 14 13 7 14 21 20 22 20 26
65 64 62 57 55 50 43 36 34 29 25 23 22 23 19 18 15 26 23 31 27 23 15 14 24 9 2 12 6 5 3 10 6 4 2 12 18 11 4 18 19 20 19 22 25
69 67 65 59 54 47 38 28 23 20 16 16 15 13 17 8 11 20 28 34 29 25 17 19 18 6 8 8 6 0 10 9 6 1 6 3 7 15 16 12 16 14 13 14 21
74 71 66 56 49 40 23 16 14 12 7 5 9 8 11 1 9 7 28 31 26 24 17 11 7 8 7 13 12 9 9 7 9 6 7 11 22 18 19 16 18 13 11 11 12
74 72 62 52 42 20 19 7 12 7 17 17 25 36 39 41 40 32 17 42 23 17 15 11 13 21 26 19 11 8 9 16 9 10 7 8 15 18 20 23 14 7 11 13 11
74 66 55 47 26 23 22 15 19 18 21 29 21 32 34 36 18 11 16 26 23 24 15 10 25 26 16 15 13 11 8 14 15 7 13 7 18 18 14 10 16 15 17 21 19
70 53 50 37 28 19 17 29 28 20 9 17 13 17 13 7 14 16 29 21 24 24 24 26 6 14 21 15 16 13 15 12 15 1 11 9 8 4 13 22 18 23 22 25 31
70 40 38 35 16 27 21 33 28 10 6 19 12 12 16 9 6 13 29 20 9 35 18 16 12 13 17 20 21 17 26 19 16 5 6 4 6 8 4 10 21 30 32 35 37
66 33 31 34 26 34 37 28 19 1 4 24 15 19 14 10 18 16 8 14 22 15 14 12 13 19 16 23 26 16 13 19 13 13 6 12 9 8 9 9 23 32 31 33 36
59 26 26 31 32 35 41 18 1 3 2 11 13 23 16 28 15 8 6 6 7 10 3 2 5 5 6 5 18 2 10 6 3 9 17 17 14 11 4 11 17 21 26 32 37
58 16 24 29 43 36 39 8 2 2 10 13 15 19 11 18 22 17 11 16 4 16 17 2 7 9 9 6 6 8 12 9 13 14 19 9 12 6 4 6 10 16 24 32 36
61 27 18 31 38 32 30 3 2 5 7 7 13 11 11 22 18 18 5 7 17 5 7 6 10 16 19 9 4 5 5 10 11 10 5 4 9 8 8 6 8 14 20 26 34
63 29 11 31 37 21 8 6 5 5 9 13 13 7 8 11 10 13 11 2 8 12 8 3 7 5 16 22 5 5 3 5 7 3 6 6 6 8 8 6 9 9 14 26 32
63 23 16 39 25 14 8 7 2 4 7 6 8 7 11 14 12 16 5 2 4 4 4 5 5 8 11 6 17 13 4 5 2 11 19 10 9 6 15 9 10 15 21 26 27
46 13 22 41 14 16 7 5 5 4 14 8 5 6 4 6 7 14 6 7 13 5 11 6 1 9 8 3 6 6 3 5 2 5 8 11 7 5 5 8 13 15 19 24 24
31 8 30 32 13 7 4 8 7 7 12 5 2 2 3 6 7 6 5 8 22 6 4 4 6 6 10 7 9 13 14 14 10 11 4 5 5 8 11 12 17 22 32 34 29
35 12 21 21 7 6 8 6 4 6 6 6 4 6 4 2 6 4 5 13 17 3 6 10 4 4 4 7 6 8 8 7 6 1 29 20 8 7 8 11 17 23 26 30 30
16 8 12 21 14 4 6 4 8 5 3 4 3 2 3 2 2 5 6 5 12 7 10 4 4 8 11 8 2 6 7 4 4 8 10 13 8 9 4 8 11 17 20 21 27
9 4 6 7 8 7 2 3 7 6 6 10 4 9 6 5 7 6 5 8 2 11 4 1 7 3 2 2 4 8 13 13 15 14 14 14 18 17 3 5 9 7 15 20 23
4 3 4 4 5 6 3 3 5 7 6 4 2 5 3 5 8 14 4 2 4 8 5 6 4 4 5 3 8 18 19 18 19 21 22 24 27 1 5 5 12 19 29 32 25
2 2 2 1 1 3 2 4 3 11 3 2 3 4 9 9 6 13 16 18 13 8 4 2 7 4 8 5 13 20 29 29 16 11 13 17 11 2 3 16 24 32 36 37 30
Wind_Direction_500mb
11 8 5 2 359 357 353 348 347 343 335 325 323 318 312 306 300 293 282 255 199 185 166 166 167 177 180 177 169 158 206 222 219 196 224 266 3 327 310 294 316 330 290 282 305
5 3 1 359 356 353 349 344 338 334 330 325 319 317 316 315 309 294 259 224 200 193 178 173 165 164 163 167 173 194 223 220 216 205 235 312 326 319 314 306 285 308 324 278 254
1 357 354 352 350 348 345 340 333 323 320 321 314 312 317 322 324 132 127 192 185 184 191 189 175 166 155 164 182 185 239 195 213 221 253 287 292 271 294 295 262 315 318 297 269
359 356 352 346 342 340 338 334 327 319 313 311 315 315 312 314 308 174 163 156 164 173 181 176 169 165 165 183 191 209 225 209 252 233 229 268 274 275 264 267 293 300 294 263 262
353 352 351 346 340 333 331 327 325 316 306 299 305 310 310 288 255 215 192 172 173 175 184 185 180 171 193 186 169 226 232 209 241 249 254 268 258 260 260 287 306 309 285 269 254
353 347 346 345 341 332 324 321 319 311 298 288 286 293 289 265 250 223 207 190 191 182 186 194 206 195 161 180 198 205 209 253 251 252 221 222 250 183 266 296 314 322 315 274 264
354 351 346 342 339 332 324 316 315 310 294 280 276 278 275 266 252 216 196 192 189 196 201 201 201 176 156 157 196 156 263 268 218 226 229 202 239 228 273 322 317 323 320 288 273
353 349 346 341 339 332 326 315 314 308 294 276 266 269 256 261 243 213 191 184 186 190 179 181 163 165 224 130 77 202 232 251 126 171 299 205 241 253 137 336 317 303 285 287 273
352 347 345 340 336 333 328 319 319 322 304 274 259 249 270 275 247 218 205 192 185 188 156 143 168 166 152 179 194 52 242 223 275 342 132 240 255 265 317 321 300 294 298 302 309
351 347 346 341 336 334 340 331 343 334 325 321 277 276 249 250 126 78 208 200 190 182 148 175 158 182 157 196 226 194 213 217 233 134 294 284 265 267 290 304 292 323 331 327 333
351 348 349 344 341 3 18 5 4 342 313 269 279 266 278 280 273 274 246 194 169 167 184 185 206 213 208 208 231 200 242 263 255 247 269 263 265 287 289 287 306 344 1 340 320
351 352 355 351 3 35 54 65 32 312 303 316 304 281 285 254 276 217 197 169 188 197 141 176 229 228 208 179 186 196 219 260 299 216 213 267 283 294 297 61 63 29 2 346 336
354 357 5 6 40 8 51 15 347 330 285 308 335 2 350 334 221 252 205 187 190 189 195 213 195 186 181 171 188 212 225 236 258 128 237 257 229 318 99 98 62 34 5 350 344
357 360 13 20 25 21 2 340 331 326 318 348 4 11 339 342 235 344 206 180 172 205 194 229 224 174 183 206 203 231 216 236 248 234 250 256 230 282 112 120 40 16 6 353 347
359 357 1 13 9 2 347 327 329 146 345 343 353 360 12 354 313 23 179 211 196 162 179 198 195 191 207 228 194 227 194 209 211 221 219 192 242 184 358 127 12 6 6 2 1
360 351 353 354 360 351 348 341 13 243 337 354 349 351 5 17 19 353 61 79 83 149 166 164 55 45 331 68 194 111 164 121 133 186 242 234 237 182 354 343 359 21 25 23 22
359 326 357 351 349 349 346 351 230 213 347 8 336 338 344 4 19 24 41 49 24 211 223 176 44 353 14 196 92 201 192 220 218 211 250 132 217 27 27 36 21 12 21 24 29
357 341 314 341 338 332 340 17 216 8 6 359 335 328 45 4 25 14 77 78 43 41 90 208 164 13 358 25 12 75 259 241 254 231 185 171 206 113 113 111 38 39 30 23 23
354 353 339 344 345 340 344 59 56 8 330 333 325 22 19 12 1 13 28 52 35 19 84 135 106 319 48 44 344 92 101 355 106 40 247 150 112 179 185 123 83 46 23 16 9
352 359 13 349 348 359 73 92 67 348 330 335 349 13 344 352 354 8 330 32 60 18 90 129 148 22 7 329 43 67 45 205 104 225 242 191 195 151 166 103 59 45 18 4 360
354 1 351 351 358 52 68 48 321 1 15 355 347 302 358 350 317 328 328 48 11 349 42 113 299 175 298 36 336 335 248 75 332 245 264 251 155 80 94 354 334 349 342 338 339
357 334 344 1 49 35 55 326 324 337 7 357 41 33 50 5 305 287 311 336 334 281 91 59 132 210 260 332 278 246 258 232 230 191 213 309 202 72 43 28 5 10 7 353 328
342 313 357 15 62 29 329 319 297 355 2 360 32 25 17 353 305 351 348 342 359 25 161 173 167 187 204 210 186 216 164 139 119 140 253 254 221 144 63 42 21 15 9 10 11
348 337 6 50 73 40 8 357 332 349 85 17 30 41 10 355 26 303 318 355 1 53 74 128 152 229 266 337 44 205 180 141 202 229 256 243 280 215 335 18 14 20 21 16 15
9 35 2 346 22 359 305 334 328 331 33 25 103 40 359 296 309 284 306 293 37 359 26 357 245 252 264 188 236 246 240 238 233 248 253 276 266 288 260 343 4 358 348 340 346
12 350 334 305 308 308 353 85 336 333 313 359 60 11 349 261 278 290 305 294 330 353 28 7 185 206 241 310 282 270 251 242 243 254 262 262 271 194 130 328 329 338 339 336 328
346 292 303 323 335 276 95 342 317 341 258 72 24 299 282 289 273 283 274 275 275 307 338 304 164 176 263 5 302 275 250 229 224 211 244 243 292 144 326 341 331 324 322 316 314
Wind_Speed_850mb
42 42 41 40 38 36 35 30 26 23 19 17 17 19 20 22 26 30 30 15 18 27 28 30 34 30 26 20 14 11 8 14 14 13 6 1 7 13 19 22 26 11 14 17 18
45 44 43 41 40 37 34 31 28 24 21 19 18 20 22 26 32 35 23 15 20 37 38 34 36 31 15 15 13 12 10 15 6 9 5 13 9 18 16 28 11 16 21 17 13
46 45 44 43 40 38 36 33 29 26 23 22 21 22 24 28 30 2 10 11 22 33 36 27 27 27 11 14 15 12 12 12 10 17 12 16 14 5 16 16 10 28 26 19 19
51 51 49 47 44 40 37 35 32 28 25 24 26 25 25 20 6 11 7 8 26 33 39 34 32 18 13 16 19 10 15 15 8 15 8 13 7 13 21 31 38 41 33 26 30
54 53 53 53 49 44 40 36 36 31 26 24 25 26 23 11 17 18 13 18 28 33 37 34 28 16 16 14 17 16 9 13 21 18 22 17 23 14 22 32 33 37 25 18 24
58 55 54 55 54 48 42 39 38 33 27 24 24 23 22 12 14 16 24 19 25 32 33 29 19 21 12 13 17 14 12 9 9 14 12 14 14 9 12 21 20 24 20 18 20
62 59 56 55 56 52 44 39 37 34 27 24 24 25 28 35 15 16 21 25 26 25 22 24 16 20 17 13 8 4 9 9 14 10 10 17 14 13 7 14 21 20 22 20 26
65 64 62 57 55 50 43 36 34 29 25 23 22 23 19 18 15 26 23 31 27 23 15 14 24 9 2 12 6 5 3 10 6 4 2 12 18 11 4 18 19 20 19 22 25
69 67 65 59 54 47 38 28 23 20 16 16 15 13 17 8 11 20 28 34 29 25 17 19 18 6 8 8 6 0 10 9 6 1 6 3 7 15 16 12 16 14 13 14 21
74 71 66 56 49 40 23 16 14 12 7 5 9 8 11 1 9 7 28 31 26 24 17 11 7 8 7 13 12 9 9 7 9 6 7 11 22 18 19 16 18 13 11 11 12
74 72 62 52 42 20 19 7 12 7 17 17 25 36 39 41 40 32 17 42 23 17 15 11 13 21 26 19 11 8 9 16 9 10 7 8 15 18 20 23 14 7 11 13 11
74 66 55 47 26 23 22 15 19 18 21 29 21 32 34 36 18 11 16 26 23 24 15 10 25 26 16 15 13 11 8 14 15 7 13 7 18 18 14 10 16 15 17 21 19
70 53 50 37 28 19 17 29 28 20 9 17 13 17 13 7 14 16 29 21 24 24 24 26 6 14 21 15 16 13 15 12 15 1 11 9 8 4 13 22 18 23 22 25 31
70 40 38 35 16 27 21 33 28 10 6 19 12 12 16 9 6 13 29 20 9 35 18 16 12 13 17 20 21 17 26 19 16 5 6 4 6 8 4 10 21 30 32 35 37
66 33 31 34 26 34 37 28 19 1 4 24 15 19 14 10 18 16 8 14 22 15 14 12 13 19 16 23 26 16 13 19 13 13 6 12 9 8 9 9 23 32 31 33 36
59 26 26 31 32 35 41 18 1 3 2 11 13 23 16 28 15 8 6 6 7 10 3 2 5 5 6 5 18 2 10 6 3 9 17 17 14 11 4 11 17 21 26 32 37
58 16 24 29 43 36 39 8 2 2 10 13 15 19 11 18 22 17 11 16 4 16 17 2 7 9 9 6 6 8 12 9 13 14 19 9 12 6 4 6 10 16 24 32 36
61 27 18 31 38 32 30 3 2 5 7 7 13 11 11 22 18 18 5 7 17 5 7 6 10 16 19 9 4 5 5 10 11 10 5 4 9 8 8 6 8 14 20 26 34
63 29 11 31 37 21 8 6 5 5 9 13 13 7 8 11 10 13 11 2 8 12 8 3 7 5 16 22 5 5 3 5 7 3 6 6 6 8 8 6 9 9 14 26 32
63 23 16 39 25 14 8 7 2 4 7 6 8 7 11 14 12 16 5 2 4 4 4 5 5 8 11 6 17 13 4 5 2 11 19 10 9 6 15 9 10 15 21 26 27
46 13 22 41 14 16 7 5 5 4 14 8 5 6 4 6 7 14 6 7 13 5 11 6 1 9 8 3 6 6 3 5 2 5 8 11 7 5 5 8 13 15 19 24 24
31 8 30 32 13 7 4 8 7 7 12 5 2 2 3 6 7 6 5 8 22 6 4 4 6 6 10 7 9 13 14 14 10 11 4 5 5 8 11 12 17 22 32 34 29
35 12 21 21 7 6 8 6 4 6 6 6 4 6 4 2 6 4 5 13 17 3 6 10 4 4 4 7 6 8 8 7 6 1 29 20 8 7 8 11 17 23 26 30 30
16 8 12 21 14 4 6 4 8 5 3 4 3 2 3 2 2 5 6 5 12 7 10 4 4 8 11 8 2 6 7 4 4 8 10 13 8 9 4 8 11 17 20 21 27
9 4 6 7 8 7 2 3 7 6 6 10 4 9 6 5 7 6 5 8 2 11 4 1 7 3 2 2 4 8 13 13 15 14 14 14 18 17 3 5 9 7 15 20 23
4 3 4 4 5 6 3 3 5 7 6 4 2 5 3 5 8 14 4 2 4 8 5 6 4 4 5 3 8 18 19 18 19 21 22 24 27 1 5 5 12 19 29 32 25
2 2 2 1 1 3 2 4 3 11 3 2 3 4 9 9 6 13 16 18 13 8 4 2 7 4 8 5 13 20 29 29 16 11 13 17 11 2 3 16 24 32 36 37 30
Wind_Direction_850mb
11 8 5 2 359 357 353 348 347 343 335 325 323 318 312 306 300 293 282 255 199 185 166 166 167 177 180 177 169 158 206 222 219 196 224 266 3 327 310 294 316 330 290 282 305
5 3 1 359 356 353 349 344 338 334 330 325 319 317 316 315 309 294 259 224 200 193 178 173 165 164 163 167 173 194 223 220 216 205 235 312 326 319 314 306 285 308 324 278 254
1 357 354 352 350 348 345 340 333 323 320 321 314 312 317 322 324 132 127 192 185 184 191 189 175 166 155 164 182 185 239 195 213 221 253 287 292 271 294 295 262 315 318 297 269
359 356 352 346 342 340 338 334 327 319 313 311 315 315 312 314 308 174 163 156 164 173 181 176 169 165 165 183 191 209 225 209 252 233 229 268 274 275 264 267 293 300 294 263 262
353 352 351 346 340 333 331 327 325 316 306 299 305 310 310 288 255 215 192 172 173 175 184 185 180 171 193 186 169 226 232 209 241 249 254 268 258 260 260 287 306 309 285 269 254
353 347 346 345 341 332 324 321 319 311 298 288 286 293 289 265 250 223 207 190 191 182 186 194 206 195 161 180 198 205 209 253 251 252 221 222 250 183 266 296 314 322 315 274 264
354 351 346 342 339 332 324 316 315 310 294 280 276 278 275 266 252 216 196 192 189 196 201 201 201 176 156 157 196 156 263 268 218 226 229 202 239 228 273 322 317 323 320 288 273
353 349 346 341 339 332 326 315 314 308 294 276 266 269 256 261 243 213 191 184 186 190 179 181 163 165 224 130 77 202 232 251 126 171 299 205 241 253 137 336 317 303 285 287 273
352 347 345 340 336 333 328 319 319 322 304 274 259 249 270 275 247 218 205 192 185 188 156 143 168 166 152 179 194 52 242 223 275 342 132 240 255 265 317 321 300 294 298 302 309
351 347 346 341 336 334 340 331 343 334 325 321 277 276 249 250 126 78 208 200 190 182 148 175 158 182 157 196 226 194 213 217 233 134 294 284 265 267 290 304 292 323 331 327 333
351 348 349 344 341 3 18 5 4 342 313 269 279 266 278 280 273 274 246 194 169 167 184 185 206 213 208 208 231 200 242 263 255 247 269 263 265 287 289 287 306 344 1 340 320
351 352 355 351 3 35 54 65 32 312 303 316 304 281 285 254 276 217 197 169 188 197 141 176 229 228 208 179 186 196 219 260 299 216 213 267 283 294 297 61 63 29 2 346 336
354 357 5 6 40 8 51 15 347 330 285 308 335 2 350 334 221 252 205 187 190 189 195 213 195 186 181 171 188 212 225 236 258 128 237 257 229 318 99 98 62 34 5 350 344
357 360 13 20 25 21 2 340 331 326 318 348 4 11 339 342 235 344 206 180 172 205 194 229 224 174 183 206 203 231 216 236 248 234 250 256 230 282 112 120 40 16 6 353 347
359 357 1 13 9 2 347 327 329 146 345 343 353 360 12 354 313 23 179 211 196 162 179 198 195 191 207 228 194 227 194 209 211 221 219 192 242 184 358 127 12 6 6 2 1
360 351 353 354 360 351 348 341 13 243 337 354 349 351 5 17 19 353 61 79 83 149 166 164 55 45 331 68 194 111 164 121 133 186 242 234 237 182 354 343 359 21 25 23 22
359 326 357 351 349 349 346 351 230 213 347 8 336 338 344 4 19 24 41 49 24 211 223 176 44 353 14 196 92 201 192 220 218 211 250 132 217 27 27 36 21 12 21 24 29
357 341 314 341 338 332 340 17 216 8 6 359 335 328 45 4 25 14 77 78 43 41 90 208 164 13 358 25 12 75 259 241 254 231 185 171 206 113 113 111 38 39 30 23 23
354 353 339 344 345 340 344 59 56 8 330 333 325 22 19 12 1 13 28 52 35 19 84 135 106 319 48 44 344 92 101 355 106 40 247 150 112 179 185 123 83 46 23 16 9
352 359 13 349 348 359 73 92 67 348 330 335 349 13 344 352 354 8 330 32 60 18 90 129 148 22 7 329 43 67 45 205 104 225 242 191 195 151 166 103 59 45 18 4 360
354 1 351 351 358 52 68 48 321 1 15 355 347 302 358 350 317 328 328 48 11 349 42 113 299 175 298 36 336 335 248 75 332 245 264 251 155 80 94 354 334 349 342 338 339
357 334 344 1 49 35 55 326 324 337 7 357 41 33 50 5 305 287 311 336 334 281 91 59 132 210 260 332 278 246 258 232 230 191 213 309 202 72 43 28 5 10 7 353 328
342 313 357 15 62 29 329 319 297 355 2 360 32 25 17 353 305 351 348 342 359 25 161 173 167 187 204 210 186 216 164 139 119 140 253 254 221 144 63 42 21 15 9 10 11
348 337 6 50 73 40 8 357 332 349 85 17 30 41 10 355 26 303 318 355 1 53 74 128 152 229 266 337 44 205 180 141 202 229 256 243 280 215 335 18 14 20 21 16 15
9 35 2 346 22 359 305 334 328 331 33 25 103 40 359 296 309 284 306 293 37 359 26 357 245 252 264 188 236 246 240 238 233 248 253 276 266 288 260 343 4 358 348 340 346
12 350 334 305 308 308 353 85 336 333 313 359 60 11 349 261 278 290 305 294 330 353 28 7 185 206 241 310 282 270 251 242 243 254 262 262 271 194 130 328 329 338 339 336 328
346 292 303 323 335 276 95 342 317 341 258 72 24 299 282 289 273 283 274 275 275 307 338 304 164 176 263 5 302 275 250 229 224 211 244 243 292 144 326 341 331 324 322 316 314